This is the latest recevied weather packets stored in our database for station/object EA1FBN. If no packets are shown the sender has not sent any weather packets the latest 10 day(s).
| Time | Temp. | Humidity | Pressure | Rain* | Wind** | Luminosity | Snow |
|---|---|---|---|---|---|---|---|
| 1778034308 | 3.89° C | 61% | 1016 hPa | 0 mm | - | - | - |
| 1778034007 | 3.89° C | 62% | 1016.2 hPa | 0 mm | - | - | - |
| 1778033707 | 3.89° C | 62% | 1016.2 hPa | 0 mm | - | - | - |
| 1778033407 | 3.89° C | 62% | 1016.1 hPa | 0 mm | - | - | - |
| 1778032207 | 4.44° C | 63% | 1016.1 hPa | 0 mm | - | - | - |
| 1778031007 | 4.44° C | 64% | 1016.2 hPa | 0 mm | - | - | - |
| 1778030107 | 5° C | 62% | 1016.2 hPa | 0 mm | - | - | - |
| 1778029807 | 5.56° C | 62% | 1016.2 hPa | 0 mm | - | - | - |
| 1778027707 | 5.56° C | 61% | 1016.3 hPa | 0.25 mm | - | - | - |
| 1778027107 | 5.56° C | 62% | 1016.5 hPa | 0.25 mm | - | - | - |
| 1778022308 | 5.56° C | 65% | 1016.4 hPa | 0 mm | - | - | - |
| 1778021708 | 5.56° C | 66% | 1016.4 hPa | 0 mm | - | - | - |
| 1778020808 | 6.11° C | 67% | 1016.5 hPa | 0 mm | - | - | - |
| 1778020208 | 6.11° C | 68% | 1016.6 hPa | 0 mm | - | - | - |
| 1778019608 | 6.11° C | 70% | 1016.5 hPa | 0 mm | - | - | - |
| 1778019308 | 6.11° C | 70% | 1016.5 hPa | 0 mm | - | - | - |
| 1778019008 | 6.67° C | 71% | 1016.5 hPa | 0 mm | - | - | - |
| 1778015408 | 7.22° C | 71% | 1016.5 hPa | 0 mm | - | - | - |
| 1778013308 | 7.22° C | 75% | 1016.2 hPa | 0 mm | - | - | - |
| 1778011508 | 8.33° C | 75% | 1015.9 hPa | 0 mm | - | - | - |
| 1778010908 | 8.33° C | 75% | 1015.8 hPa | 0 mm | - | - | - |
| 1778010008 | 8.89° C | 75% | 1015.7 hPa | 0 mm | - | - | - |
| 1778009708 | 8.89° C | 75% | 1015.7 hPa | 0 mm | - | - | - |
| 1778009408 | 8.89° C | 75% | 1015.6 hPa | 0 mm | - | - | - |
| 1778009108 | 9.44° C | 74% | 1015.6 hPa | 0 mm | - | - | - |
* Rain latest hour (hover to see other rain measurements)
** Current wind speed in m/s (hover to see current wind gust speed)